User: anonymous   Login
Location: Dziadowski
(50.3833°N, 20.0333°E)
Time: 06:44:23
(UTC+00:00)
Language:

Gblst 52 Del rocket - Orbit

View from above orbital plane
View from above orbital plane
View from above satellite
View from above satellite

Ground track
Ground track

The orbit is defined by the following mean orbital elements,

1 25774U          26075.88547127 +.00000000 +00000-0 +54636-4 0 00008
2 25774  51.5287 229.9292 0373951 265.4067 260.8886 13.46768397    00
Epoch (UTC): 16 March 2026 21:15:04
Eccentricity: 0.0373951
inclination: 51.5287°
perigee height: 805 km
apogee height: 1363 km
right ascension of ascending node: 229.9292°
argument of perigee: 265.4067°
revolutions per day: 13.46768397
mean anomaly at epoch: 260.8886°

The dashed part of the orbit path shows where the satellite is in the earth's shadow,  

DLR